• în România
  • Lista ţărilor
  • Pe 7 zile
  • Temperatura apei
  • Hartă satelitară
  • Meteo pe hartă
  • Widget-uri
  • user-avatar
    Intrare

    Meteo pe oră la Ussodica

    Astăzi, 20 Iulie, Vineri

    Timp Temperatura Precipitaţii Vânt Presiune Umiditate
    00:00 +18°C° 0 mm 2 m/s 739 mmHg 98%
    01:00 +17°C° 0 mm 2 m/s 739 mmHg 98%
    02:00 +17°C° 0 mm 2 m/s 739 mmHg 98%
    03:00 +17°C° 0 mm 2 m/s 739 mmHg 98%
    04:00 +17°C° 0 mm 2 m/s 739 mmHg 98%
    05:00 +17°C° 0 mm 2 m/s 739 mmHg 98%
    06:00 +18°C° 0,2 mm 2 m/s 739 mmHg 97%
    07:00 +19°C° 0,2 mm 2 m/s 739 mmHg 96%
    08:00 +20°C° 0,2 mm 2 m/s 739 mmHg 94%
    09:00 +20°C° 0,3 mm 2 m/s 739 mmHg 94%
    10:00 +20°C° 0,3 mm 2 m/s 739 mmHg 93%
    11:00 +21°C° 0,3 mm 2 m/s 739 mmHg 93%
    12:00 +23°C° 0,3 mm 2 m/s 739 mmHg 87%
    13:00 +24°C° 0,3 mm 2 m/s 739 mmHg 82%
    14:00 +25°C° 0,3 mm 2 m/s 739 mmHg 76%
    15:00 +25°C° 0,7 mm 2 m/s 739 mmHg 80%
    16:00 +25°C° 0,7 mm 2 m/s 739 mmHg 83%
    17:00 +25°C° 0,7 mm 2 m/s 739 mmHg 87%
    18:00 +24°C° 0,5 mm 1 m/s 738 mmHg 89%
    19:00 +22°C° 0,5 mm 1 m/s 738 mmHg 92%
    20:00 +21°C° 0,5 mm 1 m/s 738 mmHg 95%
    21:00 +21°C° 0 mm 1 m/s 738 mmHg 96%
    22:00 +20°C° 0 mm 1 m/s 738 mmHg 96%
    23:00 +19°C° 0 mm 1 m/s 738 mmHg 97%

    Mâine, 21 Iulie, Sâmbătă

    Timp Temperatura Precipitaţii Vânt Presiune Umiditate
    00:00 +19°C° 0 mm 1 m/s 738 mmHg 97%
    01:00 +17°C° 0 mm 0 m/s 738 mmHg 97%
    02:00 +17°C° 0 mm 0 m/s 738 mmHg 97%
    03:00 +17°C° 0 mm 0 m/s 739 mmHg 97%
    04:00 +17°C° 0 mm 0 m/s 739 mmHg 97%
    05:00 +17°C° 0 mm 0 m/s 739 mmHg 98%
    06:00 +19°C° 0 mm 0 m/s 739 mmHg 94%
    07:00 +20°C° 0 mm 0 m/s 739 mmHg 90%
    08:00 +24°C° 0 mm 1 m/s 739 mmHg 86%
    09:00 +25°C° 0,1 mm 1 m/s 739 mmHg 80%
    10:00 +26°C° 0,1 mm 1 m/s 739 mmHg 74%
    11:00 +28°C° 0,1 mm 1 m/s 739 mmHg 68%
    12:00 +26°C° 0,3 mm 0 m/s 739 mmHg 67%
    13:00 +26°C° 0,3 mm 0 m/s 739 mmHg 67%
    14:00 +26°C° 0,3 mm 0 m/s 739 mmHg 67%
    15:00 +26°C° 0,5 mm 0 m/s 739 mmHg 71%
    16:00 +27°C° 0,5 mm 1 m/s 739 mmHg 75%
    17:00 +27°C° 0,5 mm 1 m/s 739 mmHg 79%
    18:00 +25°C° 0,7 mm 1 m/s 739 mmHg 84%
    19:00 +24°C° 0,7 mm 1 m/s 739 mmHg 89%
    20:00 +23°C° 0,7 mm 1 m/s 739 mmHg 94%
    21:00 +22°C° 1,2 mm 1 m/s 739 mmHg 95%
    22:00 +21°C° 1,2 mm 1 m/s 739 mmHg 96%
    23:00 +21°C° 1,2 mm 1 m/s 739 mmHg 97%

    Poimâine, 22 Iulie, Duminică

    Timp Temperatura Precipitaţii Vânt Presiune Umiditate
    00:00 +21°C° 0,1 mm 1 m/s 739 mmHg 97%
    01:00 +20°C° 0,1 mm 1 m/s 739 mmHg 97%
    02:00 +20°C° 0,1 mm 1 m/s 738 mmHg 97%
    03:00 +20°C° 0,1 mm 1 m/s 738 mmHg 97%
    04:00 +20°C° 0,1 mm 1 m/s 738 mmHg 98%
    05:00 +20°C° 0,1 mm 1 m/s 738 mmHg 98%
    06:00 +21°C° 0,2 mm 1 m/s 738 mmHg 96%
    07:00 +22°C° 0,2 mm 1 m/s 739 mmHg 94%
    08:00 +23°C° 0,2 mm 2 m/s 739 mmHg 93%
    09:00 +24°C° 0,7 mm 2 m/s 739 mmHg 90%
    10:00 +24°C° 0,7 mm 2 m/s 738 mmHg 87%
    11:00 +25°C° 0,7 mm 2 m/s 738 mmHg 84%
    12:00 +25°C° 1,2 mm 2 m/s 738 mmHg 84%
    13:00 +25°C° 1,2 mm 3 m/s 738 mmHg 83%
    14:00 +26°C° 1,2 mm 3 m/s 738 mmHg 83%
    15:00 +25°C° 1,2 mm 3 m/s 738 mmHg 84%
    16:00 +25°C° 1,2 mm 3 m/s 738 mmHg 85%
    17:00 +25°C° 1,2 mm 3 m/s 738 mmHg 85%
    18:00 +24°C° 0,4 mm 2 m/s 738 mmHg 88%
    19:00 +23°C° 0,4 mm 2 m/s 738 mmHg 90%
    20:00 +21°C° 0,4 mm 2 m/s 738 mmHg 93%
    21:00 +21°C° 0,2 mm 2 m/s 738 mmHg 95%
    22:00 +20°C° 0,2 mm 2 m/s 738 mmHg 96%
    23:00 +20°C° 0,2 mm 2 m/s 738 mmHg 98%

    23 Iulie, Luni

    Timp Temperatura Precipitaţii Vânt Presiune Umiditate
    00:00 +20°C° 0,4 mm 2 m/s 738 mmHg 98%
    01:00 +20°C° 0,4 mm 2 m/s 738 mmHg 98%
    02:00 +20°C° 0,4 mm 1 m/s 738 mmHg 99%
    03:00 +20°C° 0,3 mm 2 m/s 738 mmHg 98%
    04:00 +20°C° 0,3 mm 2 m/s 738 mmHg 98%
    05:00 +20°C° 0,3 mm 2 m/s 738 mmHg 98%
    06:00 +20°C° 0,2 mm 2 m/s 738 mmHg 97%
    07:00 +21°C° 0,2 mm 2 m/s 738 mmHg 96%
    08:00 +21°C° 0,2 mm 2 m/s 738 mmHg 95%
    09:00 +21°C° 0 mm 2 m/s 739 mmHg 93%
    10:00 +23°C° 0 mm 1 m/s 739 mmHg 91%
    11:00 +23°C° 0 mm 1 m/s 739 mmHg 89%
    12:00 +24°C° 0,2 mm 1 m/s 739 mmHg 87%
    13:00 +24°C° 0,2 mm 1 m/s 739 mmHg 85%
    14:00 +25°C° 0,2 mm 1 m/s 739 mmHg 82%
    15:00 +25°C° 1,2 mm 2 m/s 739 mmHg 82%
    16:00 +25°C° 1,2 mm 2 m/s 739 mmHg 82%
    17:00 +25°C° 1,2 mm 2 m/s 739 mmHg 82%
    18:00 +24°C° 0,7 mm 2 m/s 739 mmHg 86%
    19:00 +23°C° 0,7 mm 2 m/s 740 mmHg 90%
    20:00 +21°C° 0,7 mm 2 m/s 740 mmHg 93%
    21:00 +22°C° 0,8 mm 1 m/s 740 mmHg 95%
    22:00 +21°C° 0,8 mm 1 m/s 740 mmHg 96%
    23:00 +21°C° 0,8 mm 1 m/s 740 mmHg 97%

    24 Iulie, Marţi

    Timp Temperatura Precipitaţii Vânt Presiune Umiditate
    00:00 +21°C° 0,1 mm 1 m/s 740 mmHg 97%
    01:00 +20°C° 0,1 mm 1 m/s 740 mmHg 98%
    02:00 +19°C° 0,1 mm 2 m/s 740 mmHg 98%
    03:00 +20°C° 0,3 mm 1 m/s 740 mmHg 98%
    04:00 +20°C° 0,3 mm 1 m/s 740 mmHg 98%
    05:00 +20°C° 0,3 mm 1 m/s 740 mmHg 98%
    06:00 +21°C° 0,3 mm 1 m/s 740 mmHg 97%
    07:00 +21°C° 0,3 mm 1 m/s 741 mmHg 96%
    08:00 +22°C° 0,3 mm 1 m/s 741 mmHg 95%
    09:00 +22°C° 0,2 mm 1 m/s 741 mmHg 93%
    10:00 +23°C° 0,2 mm 1 m/s 741 mmHg 91%
    11:00 +24°C° 0,2 mm 1 m/s 741 mmHg 89%
    12:00 +24°C° 0,4 mm 1 m/s 741 mmHg 86%
    13:00 +25°C° 0,4 mm 1 m/s 741 mmHg 82%
    14:00 +26°C° 0,4 mm 1 m/s 741 mmHg 78%
    15:00 +26°C° 0,9 mm 1 m/s 741 mmHg 78%
    16:00 +26°C° 0,9 mm 1 m/s 741 mmHg 78%
    17:00 +26°C° 0,9 mm 1 m/s 742 mmHg 78%
    18:00 +25°C° 0,8 mm 1 m/s 742 mmHg 83%
    19:00 +24°C° 0,8 mm 1 m/s 742 mmHg 88%
    20:00 +22°C° 0,8 mm 1 m/s 742 mmHg 93%
    21:00 +22°C° 0,3 mm 1 m/s 742 mmHg 94%
    22:00 +21°C° 0,3 mm 1 m/s 742 mmHg 96%
    23:00 +21°C° 0,3 mm 1 m/s 742 mmHg 97%

    25 Iulie, Miercuri

    Timp Temperatura Precipitaţii Vânt Presiune Umiditate
    00:00 +20°C° 0 mm 1 m/s 742 mmHg 97%
    01:00 +20°C° 0 mm 1 m/s 742 mmHg 98%
    02:00 +20°C° 0 mm 1 m/s 743 mmHg 98%
    03:00 +20°C° 0 mm 1 m/s 743 mmHg 98%
    04:00 +20°C° 0 mm 1 m/s 743 mmHg 98%
    05:00 +20°C° 0 mm 1 m/s 743 mmHg 98%
    06:00 +21°C° 0 mm 1 m/s 743 mmHg 96%
    07:00 +21°C° 0 mm 2 m/s 744 mmHg 93%
    08:00 +21°C° 0 mm 2 m/s 744 mmHg 90%
    09:00 +24°C° 0 mm 2 m/s 744 mmHg 85%
    10:00 +25°C° 0 mm 2 m/s 744 mmHg 79%
    11:00 +26°C° 0 mm 2 m/s 744 mmHg 73%
    12:00 +26°C° 0,2 mm 2 m/s 744 mmHg 75%
    13:00 +26°C° 0,2 mm 3 m/s 744 mmHg 76%
    14:00 +26°C° 0,2 mm 3 m/s 744 mmHg 77%
    15:00 +25°C° 0,3 mm 3 m/s 744 mmHg 82%
    16:00 +22°C° 0,3 mm 3 m/s 745 mmHg 87%
    17:00 +21°C° 0,3 mm 3 m/s 745 mmHg 92%
    18:00 +21°C° 0 mm 3 m/s 745 mmHg 92%
    19:00 +20°C° 0 mm 2 m/s 745 mmHg 93%
    20:00 +20°C° 0 mm 2 m/s 745 mmHg 93%
    21:00 +19°C° 0 mm 2 m/s 745 mmHg 93%
    22:00 +19°C° 0 mm 1 m/s 745 mmHg 94%
    23:00 +18°C° 0 mm 1 m/s 745 mmHg 94%
    Arată mai mult